• Em Portugal
  • Lista de países
  • Para 7 dias
  • Temperatura da água
  • Mapas de satélite
  • Mapa do tempo
  • Widgets de tempo
  • user-avatar
    Iniciar Sessão

    Previsão horária em Sapporo

    Hoje, 20 Setembro, Quinta-feira

    Tempo Temperatura Precipitação Vento Pressão Humidade
    00:00 +12°C° 0 mm 3 m/s 756 mmHg 67%
    01:00 +12°C° 0 mm 3 m/s 756 mmHg 70%
    02:00 +12°C° 0 mm 3 m/s 756 mmHg 73%
    03:00 +12°C° 0 mm 3 m/s 756 mmHg 75%
    04:00 +12°C° 0 mm 3 m/s 756 mmHg 76%
    05:00 +12°C° 0 mm 3 m/s 756 mmHg 77%
    06:00 +12°C° 0 mm 3 m/s 756 mmHg 78%
    07:00 +16°C° 0 mm 3 m/s 757 mmHg 69%
    08:00 +18°C° 0 mm 3 m/s 757 mmHg 60%
    09:00 +20°C° 0 mm 3 m/s 756 mmHg 51%
    10:00 +21°C° 0 mm 3 m/s 756 mmHg 48%
    11:00 +22°C° 0 mm 4 m/s 756 mmHg 46%
    12:00 +22°C° 0 mm 4 m/s 756 mmHg 43%
    13:00 +22°C° 0 mm 4 m/s 756 mmHg 45%
    14:00 +22°C° 0 mm 4 m/s 756 mmHg 46%
    15:00 +21°C° 0 mm 3 m/s 756 mmHg 50%
    16:00 +19°C° 0 mm 3 m/s 756 mmHg 57%
    17:00 +17°C° 0 mm 3 m/s 757 mmHg 64%
    18:00 +16°C° 0 mm 2 m/s 757 mmHg 71%
    19:00 +15°C° 0 mm 2 m/s 757 mmHg 73%
    20:00 +14°C° 0 mm 2 m/s 758 mmHg 75%
    21:00 +14°C° 0 mm 2 m/s 758 mmHg 77%
    22:00 +13°C° 0 mm 2 m/s 758 mmHg 79%
    23:00 +13°C° 0 mm 2 m/s 758 mmHg 80%

    Amanhã, 21 Setembro, Sexta-feira

    Tempo Temperatura Precipitação Vento Pressão Humidade
    00:00 +13°C° 0 mm 2 m/s 759 mmHg 81%
    01:00 +13°C° 0 mm 2 m/s 759 mmHg 81%
    02:00 +13°C° 0 mm 2 m/s 759 mmHg 82%
    03:00 +12°C° 0 mm 2 m/s 759 mmHg 82%
    04:00 +12°C° 0 mm 1 m/s 759 mmHg 82%
    05:00 +12°C° 0 mm 1 m/s 759 mmHg 81%
    06:00 +13°C° 0 mm 1 m/s 760 mmHg 80%
    07:00 +15°C° 0 mm 1 m/s 760 mmHg 73%
    08:00 +19°C° 0 mm 1 m/s 760 mmHg 66%
    09:00 +22°C° 0 mm 1 m/s 760 mmHg 58%
    10:00 +23°C° 0 mm 1 m/s 760 mmHg 54%
    11:00 +24°C° 0 mm 1 m/s 760 mmHg 50%
    12:00 +24°C° 0 mm 2 m/s 760 mmHg 46%
    13:00 +24°C° 0 mm 1 m/s 760 mmHg 47%
    14:00 +24°C° 0 mm 1 m/s 760 mmHg 48%
    15:00 +24°C° 0 mm 1 m/s 759 mmHg 49%
    16:00 +22°C° 0 mm 1 m/s 760 mmHg 56%
    17:00 +20°C° 0 mm 1 m/s 760 mmHg 62%
    18:00 +18°C° 0 mm 1 m/s 760 mmHg 69%
    19:00 +17°C° 0 mm 2 m/s 760 mmHg 71%
    20:00 +16°C° 0 mm 2 m/s 760 mmHg 73%
    21:00 +16°C° 0 mm 3 m/s 760 mmHg 75%
    22:00 +16°C° 0 mm 3 m/s 760 mmHg 76%
    23:00 +16°C° 0 mm 3 m/s 760 mmHg 78%

    Depois de amanhã, 22 Setembro, Sábado

    Tempo Temperatura Precipitação Vento Pressão Humidade
    00:00 +16°C° 0 mm 3 m/s 759 mmHg 79%
    01:00 +14°C° 0 mm 3 m/s 759 mmHg 79%
    02:00 +14°C° 0 mm 3 m/s 759 mmHg 79%
    03:00 +14°C° 0 mm 3 m/s 758 mmHg 78%
    04:00 +14°C° 0.2 mm 4 m/s 758 mmHg 80%
    05:00 +14°C° 0.2 mm 4 m/s 758 mmHg 81%
    06:00 +14°C° 0.2 mm 4 m/s 758 mmHg 82%
    07:00 +14°C° 0.7 mm 4 m/s 758 mmHg 84%
    08:00 +14°C° 0.7 mm 5 m/s 757 mmHg 85%
    09:00 +14°C° 0.7 mm 5 m/s 757 mmHg 86%
    10:00 +15°C° 0.7 mm 6 m/s 756 mmHg 86%
    11:00 +15°C° 0.7 mm 6 m/s 756 mmHg 85%
    12:00 +16°C° 0.7 mm 6 m/s 756 mmHg 85%
    13:00 +16°C° 0.4 mm 6 m/s 755 mmHg 86%
    14:00 +16°C° 0.4 mm 6 m/s 754 mmHg 88%
    15:00 +15°C° 0.4 mm 6 m/s 754 mmHg 89%
    16:00 +15°C° 0.5 mm 6 m/s 753 mmHg 90%
    17:00 +15°C° 0.5 mm 6 m/s 753 mmHg 91%
    18:00 +15°C° 0.5 mm 6 m/s 752 mmHg 91%
    19:00 +16°C° 0.2 mm 6 m/s 752 mmHg 92%
    20:00 +16°C° 0.2 mm 6 m/s 752 mmHg 92%
    21:00 +16°C° 0.2 mm 6 m/s 752 mmHg 92%
    22:00 +16°C° 0.2 mm 6 m/s 752 mmHg 92%
    23:00 +17°C° 0.2 mm 6 m/s 752 mmHg 92%

    23 Setembro, Domingo

    Tempo Temperatura Precipitação Vento Pressão Humidade
    00:00 +17°C° 0.2 mm 6 m/s 751 mmHg 92%
    01:00 +17°C° 0.2 mm 5 m/s 752 mmHg 93%
    02:00 +18°C° 0.2 mm 4 m/s 752 mmHg 94%
    03:00 +19°C° 0.2 mm 3 m/s 752 mmHg 95%
    04:00 +18°C° 0.1 mm 3 m/s 753 mmHg 95%
    05:00 +18°C° 0.1 mm 3 m/s 753 mmHg 94%
    06:00 +18°C° 0.1 mm 3 m/s 754 mmHg 94%
    07:00 +18°C° 0 mm 3 m/s 755 mmHg 90%
    08:00 +19°C° 0 mm 3 m/s 755 mmHg 85%
    09:00 +19°C° 0 mm 4 m/s 756 mmHg 81%
    10:00 +20°C° 0 mm 3 m/s 756 mmHg 77%
    11:00 +21°C° 0 mm 3 m/s 756 mmHg 72%
    12:00 +21°C° 0 mm 3 m/s 756 mmHg 68%
    13:00 +21°C° 0 mm 3 m/s 756 mmHg 68%
    14:00 +21°C° 0 mm 3 m/s 756 mmHg 69%
    15:00 +21°C° 0 mm 3 m/s 756 mmHg 69%
    16:00 +20°C° 0 mm 2 m/s 756 mmHg 76%
    17:00 +18°C° 0 mm 2 m/s 756 mmHg 82%
    18:00 +17°C° 0 mm 2 m/s 757 mmHg 89%
    19:00 +16°C° 0 mm 2 m/s 757 mmHg 90%
    20:00 +16°C° 0 mm 1 m/s 757 mmHg 91%
    21:00 +15°C° 0 mm 1 m/s 758 mmHg 92%
    22:00 +15°C° 0 mm 1 m/s 757 mmHg 92%
    23:00 +15°C° 0 mm 2 m/s 757 mmHg 91%

    24 Setembro, Segunda-feira

    Tempo Temperatura Precipitação Vento Pressão Humidade
    00:00 +15°C° 0 mm 2 m/s 757 mmHg 91%
    01:00 +15°C° 0 mm 2 m/s 757 mmHg 91%
    02:00 +15°C° 0 mm 2 m/s 757 mmHg 91%
    03:00 +15°C° 0 mm 2 m/s 757 mmHg 91%
    04:00 +15°C° 0 mm 2 m/s 757 mmHg 90%
    05:00 +16°C° 0 mm 2 m/s 757 mmHg 90%
    06:00 +16°C° 0 mm 2 m/s 757 mmHg 89%
    07:00 +18°C° 0 mm 3 m/s 757 mmHg 82%
    08:00 +20°C° 0 mm 4 m/s 757 mmHg 76%
    09:00 +21°C° 0 mm 4 m/s 757 mmHg 69%
    10:00 +21°C° 0.1 mm 5 m/s 757 mmHg 69%
    11:00 +22°C° 0.1 mm 5 m/s 757 mmHg 68%
    12:00 +22°C° 0.1 mm 5 m/s 756 mmHg 68%
    13:00 +21°C° 0.1 mm 5 m/s 756 mmHg 70%
    14:00 +21°C° 0.1 mm 5 m/s 756 mmHg 73%
    15:00 +21°C° 0.1 mm 5 m/s 756 mmHg 75%
    16:00 +20°C° 0.5 mm 5 m/s 756 mmHg 80%
    17:00 +19°C° 0.5 mm 5 m/s 756 mmHg 85%
    18:00 +17°C° 0.5 mm 5 m/s 756 mmHg 90%
    19:00 +17°C° 0.4 mm 5 m/s 756 mmHg 91%
    20:00 +18°C° 0.4 mm 4 m/s 756 mmHg 92%
    21:00 +18°C° 0.4 mm 4 m/s 756 mmHg 93%
    22:00 +18°C° 0.2 mm 4 m/s 756 mmHg 94%
    23:00 +18°C° 0.2 mm 4 m/s 756 mmHg 94%

    25 Setembro, Terça-feira

    Tempo Temperatura Precipitação Vento Pressão Humidade
    00:00 +18°C° 0.2 mm 3 m/s 755 mmHg 95%
    01:00 +18°C° 0.1 mm 3 m/s 755 mmHg 95%
    02:00 +17°C° 0.1 mm 3 m/s 755 mmHg 95%
    03:00 +17°C° 0.1 mm 3 m/s 755 mmHg 95%
    04:00 +16°C° 0 mm 3 m/s 756 mmHg 95%
    05:00 +16°C° 0 mm 3 m/s 756 mmHg 94%
    06:00 +14°C° 0 mm 3 m/s 756 mmHg 93%
    07:00 +16°C° 0 mm 3 m/s 756 mmHg 88%
    08:00 +17°C° 0 mm 3 m/s 757 mmHg 83%
    09:00 +18°C° 0 mm 3 m/s 757 mmHg 77%
    10:00 +19°C° 0 mm 3 m/s 757 mmHg 71%
    11:00 +20°C° 0 mm 3 m/s 757 mmHg 64%
    12:00 +21°C° 0 mm 4 m/s 757 mmHg 58%
    13:00 +20°C° 0 mm 4 m/s 757 mmHg 61%
    14:00 +20°C° 0 mm 3 m/s 757 mmHg 63%
    15:00 +19°C° 0 mm 3 m/s 757 mmHg 66%
    16:00 +18°C° 0 mm 3 m/s 757 mmHg 72%
    17:00 +17°C° 0 mm 3 m/s 758 mmHg 77%
    18:00 +15°C° 0 mm 2 m/s 758 mmHg 83%
    19:00 +15°C° 0 mm 2 m/s 758 mmHg 85%
    20:00 +14°C° 0 mm 2 m/s 759 mmHg 86%
    21:00 +14°C° 0 mm 1 m/s 759 mmHg 87%
    22:00 +14°C° 0 mm 1 m/s 759 mmHg 87%
    23:00 +14°C° 0 mm 1 m/s 759 mmHg 87%
    Mostrar mais